Regional Weather Roundup
Issued by NWS Cleveland, OH

Home | Current Version | Previous Version | Graphics & Text | Print | Product List | Glossary On
Versions: 1 2 3 4 5 6 7 8 9 10 11 12 13 14 15 16 17 18 19 20 21 22 23 24 25 26 27 28 29 30 31 32 33 34 35 36 37 38 39 40 41 42 43 44 45 46 47 48 49 50
000
ASUS41 KCLE 181910
RWRCLE
OHIO REGIONAL WEATHER ROUNDUP
NATIONAL WEATHER SERVICE CLEVELAND, OH
200 PM EST MON DEC 18 2017

NOTE: "FAIR" INDICATES FEW OR NO CLOUDS BELOW 12,000 FEET WITH NO
SIGNIFICANT WEATHER AND/OR OBSTRUCTIONS TO VISIBILITY.

OHZ001>008-015>018-024>027-034-035-043-044-182000-
   NORTHWEST OHIO

CITY           SKY/WX    TMP DP  RH WIND       PRES   REMARKS
DEFIANCE       CLOUDY    45  41  86 SW12G21   29.92F
FINDLAY        CLOUDY    44  40  85 SW16      29.94F
TOLEDO EXPRESS CLOUDY    44  43  96 SW12G21   29.90F
TOLEDO EXEC    CLOUDY    44  41  89 SW16      29.91F
LIMA           CLOUDY    43  42  97 SW15      29.96F
$$

OHZ009>014-019>023-028>033-038-089-182000-
   NORTHEAST OHIO

CITY           SKY/WX    TMP DP  RH WIND       PRES   REMARKS
CLE-HOPKINS    LGT RAIN  42  39  89 SW12      29.96F FOG
CLE-LAKEFRONT  CLOUDY    42  39  89 SW16G25   29.93F FOG
CUY CO. ARPT   LGT RAIN  43  36  75 SW14      29.93F
LORAIN-ELYRIA  LGT RAIN  40  35  83 SW14      29.94F
ASHTABULA      CLOUDY    38  37  97 SW12      29.92F FOG
AKRON-CANTON   CLOUDY    40  37  89 SW10      29.95S FOG
WOOSTER        CLOUDY    39  39 100 SW8       29.96S FOG
MANSFIELD      CLOUDY    41  40  96 SW12G21   29.95F
YOUNGSTOWN     DRIZZLE   38  36  92 SW9       29.93F FOG
$$

OHZ042-051>053-060>062-070>072-077>081-182000-
  SOUTHWEST OHIO

CITY           SKY/WX    TMP DP  RH WIND       PRES   REMARKS
CINC-COVINGTON CLOUDY    47  45  93 SW9       30.03F
CINC-LUNKEN    CLOUDY    48  44  86 SW9       30.05F
HAMILTON       CLOUDY    48  44  86 SW6       30.04F
DAYTON         CLOUDY    45  43  93 SW15      30.01F
WRIGHT-PAT AFB CLOUDY    46  45  96 SW12      30.01F
DAYTON GENERAL CLOUDY    45  42  89 SW14      30.01F
WILMINGTON     CLOUDY    45  44  97 SW12      30.02S
$$

OHZ036-037-039>041-045>050-054>059-063>069-073>076-082>088-182000-
  CENTRAL AND SOUTHEAST OHIO

CITY           SKY/WX    TMP DP  RH WIND       PRES   REMARKS
COLUMBUS       CLOUDY    46  42  86 SW10      30.00F
OSU AIRPORT    CLOUDY    45  42  89 SW14      30.00S
BOLTON FIELD   CLOUDY    45  43  93 SW12      30.01F
RICKENBACK AFB CLOUDY    46  43  90 W13       30.01S
NEWARK         CLOUDY    45  41  86 SW14G21   29.99F
MARION         NOT AVBL
LANCASTER      CLOUDY    46  42  86 SW13      30.01F
ZANESVILLE     CLOUDY    47  40  76 SW7       30.00F
NEW PHILLY     NOT AVBL
$$




USA.gov is the U.S. government's official web portal to all federal, state and local government web resources and services.